Location: Sternwarte_Laufen
(47.9344°N, 12.9346°E)
Time: 04:30:53
(UTC+02:00)

ISS - Pass Details

Date: 06 July 2025
Orbit: 413 x 417 km, 51.6° (Epoch: 12 July)

Event Time Altitude Azimuth Distance (km) Brightness Sun altitude
Exits shadow 01:15:24 - 266° (W) 1,548 -0.9 -19.4°
Reaches altitude 10° 01:15:33 10° 267° (W) 1,490 -1.0 -19.4°
Maximum altitude 01:18:50 54° 346° (NNW) 511 -3.1 -19.4°
Drops below altitude 10° 01:22:08 10° 65° (ENE) 1,496 -0.6 -19.4°
Sets 01:24:16 0° 70° (ENE) 2,362 0.4 -19.3°
